Trenton, NJ

8:57 AM EST on December 12, 2019 (GMT -0500)
Trenton Mercer

Weather History for KTTN - October, 2019

Change the Weather History Date:

Wednesday, October 30, 2019

  Actual Average Record
Temperature  
Mean Temperature 60 °F 50 °F  
Max Temperature 63 °F 61 °F 81 °F (1946)
Min Temperature 57 °F 40 °F 29 °F (1910)
Degree Days  
Heating Degree Days 5 15  
Month to date heating degree days 229 317  
Since 1 July heating degree days 247 382  
Cooling Degree Days 0 0  
Month to date cooling degree days 26 7  
Year to date cooling degree days 1163 962  
Growing Degree Days 10 (Base 50)    
Moisture  
Dew Point 60 °F    
Average Humidity 97    
Maximum Humidity 100    
Minimum Humidity 93    
Precipitation  
Precipitation 0.13 in 0.12 in 2.90 in (1866)
Month to date precipitation 4.54 4.06  
Year to date precipitation 43.20 39.31  
Sea Level Pressure  
Sea Level Pressure 30.20 in    
Wind  
Wind Speed 4 mph ()    
Max Wind Speed 10 mph    
Max Gust Speed 14 mph    
Visibility 3.1 miles    
Events Fog , Rain    
T = Trace of Precipitation, MM = Missing Value Source: Averaged Metar Reports

Daily Weather History Graph

Daily Weather History Graph

Search for Another Location

Airport or City:

Astronomy

Oct. 30, 2019 Rise Set
Actual Time 7:26 AM EDT 5:58 PM EDT
Civil Twilight 6:58 AM EDT 6:27 PM EDT
Nautical Twilight 6:26 AM EDT 6:59 PM EDT
Astronomical Twilight 5:54 AM EDT 7:30 PM EDT
Moon 10:06 AM EDT (10/30) 8:04 PM EDT (10/30)
Length of Visible Light 11h 28m
Length of Day
10h 32m
Waxing Crescent, 8% of the Moon is Illuminated
Oct 30
Waxing Crescent
Nov 4
First Quarter
Nov 12
Full
Nov 19
Last Quarter
Nov 26
New

Hourly Weather History & Observations

Time (EDT) Temp. Dew Point Humidity Pressure Visibility Wind Dir Wind Speed Gust Speed Precip Events Conditions
12:53 AM 59.0 °F 57.9 °F 96% 30.25 in 0.5 mi North 4.6 mph - N/A Fog Fog
1:09 AM 57.9 °F 57.9 °F 100% 30.26 in 1.0 mi North 5.8 mph - N/A   Overcast
1:48 AM 57.2 °F 57.2 °F 100% 30.26 in 3.0 mi North 4.6 mph - N/A   Overcast
1:53 AM 57.9 °F 57.9 °F 100% 30.25 in 5.0 mi North 4.6 mph - N/A   Overcast
2:53 AM 57.9 °F 57.9 °F 100% 30.25 in 2.0 mi North 3.5 mph - N/A   Overcast
3:27 AM 57.9 °F 57.9 °F 100% 30.25 in 3.0 mi North 3.5 mph - N/A   Overcast
3:53 AM 57.9 °F 57.9 °F 100% 30.23 in 4.0 mi NNE 4.6 mph - N/A   Overcast
4:02 AM 57.9 °F 57.0 °F 97% 30.24 in 6.0 mi North 4.6 mph - N/A   Overcast
4:53 AM 57.9 °F 57.0 °F 97% 30.24 in 3.0 mi North 4.6 mph - N/A   Overcast
5:10 AM 57.9 °F 57.9 °F 100% 30.25 in 2.0 mi NNE 3.5 mph - N/A   Overcast
5:17 AM 57.9 °F 57.9 °F 100% 30.25 in 1.2 mi NE 3.5 mph - N/A   Overcast
5:53 AM 57.9 °F 57.9 °F 100% 30.24 in 1.8 mi NNE 3.5 mph - N/A   Overcast
6:53 AM 57.9 °F 57.0 °F 97% 30.24 in 2.0 mi NNE 5.8 mph - N/A   Overcast
7:05 AM 57.9 °F 57.0 °F 97% 30.26 in 4.0 mi NNE 5.8 mph - N/A   Overcast
7:32 AM 57.9 °F 57.9 °F 100% 30.27 in 2.0 mi North 3.5 mph - N/A   Overcast
7:39 AM 57.9 °F 57.9 °F 100% 30.27 in 1.2 mi NNE 4.6 mph - N/A   Overcast
7:53 AM 57.9 °F 57.9 °F 100% 30.25 in 1.5 mi North 4.6 mph - N/A   Overcast
8:53 AM 59.0 °F 57.9 °F 96% 30.25 in 1.2 mi NE 5.8 mph - N/A   Overcast
9:16 AM 59.0 °F 57.9 °F 96% 30.26 in 0.8 mi NE 5.8 mph - N/A   Overcast
9:23 AM 59.0 °F 57.9 °F 96% 30.26 in 1.8 mi NE 6.9 mph - N/A   Overcast
9:26 AM 59.0 °F 59.0 °F 100% 30.26 in 3.0 mi NE 5.8 mph - N/A   Overcast
9:41 AM 60.1 °F 59.0 °F 96% 30.26 in 2.0 mi NE 6.9 mph - N/A   Overcast
9:50 AM 60.8 °F 59.0 °F 94% 30.26 in 1.5 mi NE 6.9 mph - N/A   Overcast
9:53 AM 60.1 °F 59.0 °F 96% 30.25 in 1.5 mi NE 6.9 mph - N/A   Overcast
10:20 AM 60.1 °F 60.1 °F 100% 30.26 in 3.0 mi NE 6.9 mph - N/A   Overcast
10:34 AM 61.0 °F 60.1 °F 97% 30.26 in 2.5 mi NE 5.8 mph - N/A   Overcast
10:46 AM 61.0 °F 60.1 °F 97% 30.27 in 5.0 mi East 6.9 mph - N/A   Overcast
10:53 AM 61.0 °F 60.1 °F 97% 30.25 in 7.0 mi ENE 5.8 mph - N/A   Overcast
11:41 AM 61.0 °F 61.0 °F 100% 30.25 in 7.0 mi NNE 4.6 mph - N/A   Overcast
11:53 AM 62.1 °F 60.1 °F 93% 30.24 in 7.0 mi NE 4.6 mph - N/A   Overcast
12:16 PM 62.1 °F 60.1 °F 93% 30.24 in 10.0 mi ENE 5.8 mph - N/A   Overcast
12:53 PM 62.1 °F 60.1 °F 93% 30.21 in 2.0 mi ENE 5.8 mph - 0.00 in Rain Light Rain
1:30 PM 62.1 °F 60.1 °F 93% 30.21 in 1.0 mi NNE 4.6 mph - 0.02 in Rain Light Rain
1:53 PM 62.1 °F 61.0 °F 96% 30.19 in 2.5 mi NNE 4.6 mph - 0.02 in   Overcast
2:00 PM 63.0 °F 61.0 °F 93% 30.20 in 3.0 mi NNE 5.8 mph - N/A   Overcast
2:45 PM 62.1 °F 60.1 °F 93% 30.19 in 1.8 mi NNE 4.6 mph - 0.00 in Rain Light Rain
2:53 PM 63.0 °F 61.0 °F 93% 30.17 in 1.8 mi NE 4.6 mph - 0.00 in Rain Light Rain
2:57 PM 63.0 °F 61.0 °F 93% 30.18 in 3.0 mi NE 4.6 mph - 0.00 in Rain Light Rain
3:14 PM 63.0 °F 61.0 °F 93% 30.18 in 3.0 mi Calm Calm - 0.01 in Rain Light Rain
3:16 PM 63.0 °F 61.0 °F 93% 30.18 in 2.0 mi NNE 3.5 mph - 0.01 in Rain Light Rain
3:23 PM 62.1 °F 61.0 °F 96% 30.18 in 1.0 mi NNE 4.6 mph - 0.02 in Rain Light Rain
3:31 PM 62.1 °F 61.0 °F 96% 30.18 in 2.0 mi NNE 4.6 mph - 0.02 in Rain Light Rain
3:44 PM 63.0 °F 61.0 °F 93% 30.18 in 6.0 mi Calm Calm - 0.02 in   Overcast
3:53 PM 63.0 °F 61.0 °F 93% 30.16 in 5.0 mi North 3.5 mph - 0.02 in   Overcast
4:46 PM 62.1 °F 61.0 °F 96% 30.16 in 2.5 mi NNW 3.5 mph - 0.01 in   Overcast
4:53 PM 62.1 °F 61.0 °F 96% 30.15 in 2.5 mi NW 3.5 mph - 0.01 in   Overcast
5:08 PM 62.1 °F 61.0 °F 96% 30.16 in 1.5 mi ENE 4.6 mph - N/A   Overcast
5:23 PM 62.1 °F 61.0 °F 96% 30.16 in 2.5 mi Calm Calm - 0.00 in Rain Light Rain
5:40 PM 62.1 °F 61.0 °F 96% 30.16 in 1.8 mi Calm Calm - 0.01 in Rain Light Rain
5:53 PM 62.1 °F 61.0 °F 96% 30.14 in 2.0 mi NE 4.6 mph - 0.01 in   Overcast
5:59 PM 62.1 °F 61.0 °F 96% 30.15 in 3.0 mi ENE 4.6 mph - N/A   Overcast
6:53 PM 61.0 °F 61.0 °F 100% 30.13 in 10.0 mi SSW 3.5 mph - N/A   Mostly Cloudy
7:09 PM 61.0 °F 61.0 °F 100% 30.15 in 10.0 mi Calm Calm - N/A   Overcast
7:42 PM 61.0 °F 61.0 °F 100% 30.15 in 5.0 mi Calm Calm - N/A   Overcast
7:53 PM 62.1 °F 62.1 °F 100% 30.13 in 4.0 mi Calm Calm - N/A   Overcast
8:30 PM 61.0 °F 61.0 °F 100% 30.14 in 1.5 mi Calm Calm - N/A   Mostly Cloudy
8:41 PM 61.0 °F 61.0 °F 100% 30.13 in 0.8 mi Calm Calm - N/A   Mostly Cloudy
8:48 PM 60.8 °F 60.8 °F 100% 30.13 in 1.8 mi Calm Calm - N/A   Mostly Cloudy
8:53 PM 61.0 °F 61.0 °F 100% 30.12 in 3.0 mi Calm Calm - N/A   Overcast
9:53 PM 61.0 °F 61.0 °F 100% 30.11 in 4.0 mi SSE 3.5 mph - N/A   Overcast
10:53 PM 61.0 °F 61.0 °F 100% 30.09 in 4.0 mi South 4.6 mph - N/A   Overcast
11:53 PM 61.0 °F 61.0 °F 100% 30.08 in 3.0 mi South 5.8 mph - 0.02 in Rain Light Rain